Overview Statistics Trail Chart Weather Telemetry Raw packets
 

This is the latest recevied weather packets stored in our database for station/object KD8DNS. If no packets are shown the sender has not sent any weather packets the latest 10 day(s).

<< 77 78 79 80 81 82 83 >>
Time Temp. Humidity Pressure Rain* Wind** Luminosity Snow
1788113623 32.22° C 57% 1023.4 hPa 0 mm - 561 W/m² -
1788113323 31.67° C 56% 1022.9 hPa 0 mm - 707 W/m² -
1788113017 31.11° C 57% 1023.4 hPa 0 mm - 241 W/m² -
1788112717 31.67° C 56% 1023.5 hPa 0 mm - 275 W/m² -
1788112411 32.22° C 56% 1023.3 hPa 0 mm - 416 W/m² -
1788112106 32.22° C 53% 1023.6 hPa 0 mm - 516 W/m² -
1788111802 32.78° C 54% 1023.5 hPa 0 mm - 519 W/m² -
1788111501 32.22° C 55% 1023.4 hPa 0 mm - 701 W/m² -
1788111197 32.22° C 54% 1023.7 hPa 0 mm - 677 W/m² -
1788110888 31.67° C 54% 1023.6 hPa 0 mm - 668 W/m² -
1788110584 31.11° C 55% 1023.5 hPa 0 mm - 642 W/m² -
1788110280 30.56° C 58% 1023.7 hPa 0 mm - 642 W/m² -
1788109975 30.56° C 58% 1023.7 hPa 0 mm - 441 W/m² -
1788109669 30.56° C 57% 1023.6 hPa 0 mm - 277 W/m² -
1788109368 31.11° C 60% 1023.7 hPa 0 mm - 206 W/m² -
1788109067 31.11° C 61% 1023.8 hPa 0 mm - 240 W/m² -
1788108764 31.67° C 62% 1023.9 hPa 0 mm - 196 W/m² -
1788108460 31.11° C 66% 1023.8 hPa 0 mm - 377 W/m² -
1788108155 31.67° C 63% 1023.7 hPa 0 mm - 341 W/m² -
1788107852 31.67° C 62% 1023.9 hPa 0 mm - 658 W/m² -
1788107547 31.67° C 61% 1023.7 hPa 0 mm - 611 W/m² -
1788107242 31.67° C 63% 1023.8 hPa 0 mm - 633 W/m² -
1788106937 31.11° C 64% 1023.8 hPa 0 mm - 605 W/m² -
1788106632 30.56° C 66% 1023.7 hPa 0 mm - 614 W/m² -
1788106327 30.56° C 64% 1023.6 hPa 0 mm - 621 W/m² -

* Rain latest hour (hover to see other rain measurements)
** Current wind speed in m/s (hover to see current wind gust speed)